Location: Gajan
(43.0218°N, 1.1244°E)
Time: 16:54:53
(UTC+00:00)

X-37B - Pass Details

Date: 30 September 2021
Orbit: 385 x 389 km, 45.0° (Epoch: 17 October)

Event Time Altitude Azimuth Distance (km) Brightness Sun altitude
Exits shadow 03:39:22 30° 67° (ENE) 725 2.5 -24.6°
Drops below altitude 10° 03:41:12 10° 81° (E) 1,413 4.4 -24.3°
Sets 03:43:18 0° 86° (E) 2,269 5.7 -23.9°
